CW6421 Weather Reports


time (UTC)temp
C
wind
direction
speed
KPH
gust
KPH
rain 1hr
cm
rain 24hr
cm
rain mn
cm
humidity
%
barometer
mb
20260503233527 21 299 19.3 29.0 0.00 0.00 0.00 43 1010.7
20260503232526 21 287 24.1 27.4 0.00 0.00 0.00 43 1010.7
20260503231528 21 276 16.1 27.4 0.00 0.00 0.00 43 1010.7
20260503230527 21 277 12.9 16.1 0.00 0.00 0.00 43 1010.8
20260503224529 21 255 8.0 9.7 0.00 0.00 0.00 43 1010.8
20260503223527 21 255 8.0 9.7 0.00 0.00 0.00 43 1010.8
20260503222527 21 250 11.3 16.1 0.00 0.00 0.00 45 1010.6
20260503221530 21 240 9.7 16.1 0.00 0.00 0.00 46 1010.6
20260503220527 20 241 8.0 16.1 0.00 0.00 0.00 49 1010.6
20260503214529 20 257 4.8 17.7 0.00 0.00 0.00 49 1010.6
20260503213526 20 249 4.8 16.1 0.00 0.00 0.00 49 1010.6
20260503212528 20 259 3.2 17.7 0.00 0.00 0.00 49 1010.6
20260503211529 20 284 3.2 17.7 0.00 0.00 0.00 49 1010.6
20260503210528 20 296 4.8 19.3 0.00 0.00 0.00 48 1010.3
20260503205527 20 284 4.8 17.7 0.00 0.00 0.00 47 1010.3
20260503204529 21 255 9.7 20.9 0.00 0.00 0.00 46 1010.3
20260503203526 21 260 12.9 20.9 0.00 0.00 0.00 46 1010.3
20260503202526 21 257 11.3 20.9 0.00 0.00 0.00 44 1010.3
20260503201528 21 265 14.5 19.3 0.00 0.00 0.00 44 1010.3
20260503200527 22 255 12.9 14.5 0.00 0.00 0.00 43 1010.0
20260503195527 22 257 12.9 16.1 0.00 0.00 0.00 42 1010.0
20260503194528 22 130 4.8 8.0 0.00 0.00 0.00 43 1010.0
20260503193528 21 135 4.8 9.7 0.00 0.00 0.00 44 1010.0
20260503192527 21 136 3.2 9.7 0.00 0.00 0.00 43 1010.0
20260503191528 22 142 0.0 9.7 0.00 0.00 0.00 42 1010.0
20260503190527 22 237 0.0 16.1 0.00 0.00 0.00 41 1009.7
20260503185527 23 238 3.2 16.1 0.00 0.00 0.00 40 1009.7
20260503184530 23 234 9.7 14.5 0.00 0.00 0.00 39 1009.7
20260503183527 23 225 8.0 14.5 0.00 0.00 0.00 38 1009.7
20260503182527 24 223 6.4 16.1 0.00 0.00 0.00 37 1009.7
20260503181529 24 244 9.7 17.7 0.00 0.00 0.00 35 1009.7
20260503180528 25 245 12.9 24.1 0.00 0.00 0.00 35 1009.8
20260503175527 25 241 11.3 20.9 0.00 0.00 0.00 34 1009.8
20260503174530 25 238 11.3 22.5 0.00 0.00 0.00 33 1009.8
20260503173527 26 240 12.9 20.9 0.00 0.00 0.00 32 1009.8
20260503171531 26 225 11.3 25.7 0.00 0.00 0.00 31 1009.8
20260503170527 26 235 9.7 24.1 0.00 0.00 0.00 30 1009.9
20260503150529 28 277 16.1 35.4 0.00 0.00 0.00 30 1011.0
20260503130527 29 250 25.7 38.6 0.00 0.00 0.00 31 1012.0
20260503110528 29 216 17.7 22.5 0.00 0.00 0.00 31 1013.1
20260503081529 21 180 9.7 14.5 0.00 0.00 0.00 49 1013.8
20260503071530 17 181 6.4 9.7 0.00 0.00 0.00 54 1013.9
20260503070527 17 183 6.4 12.9 0.00 0.00 0.00 55 1014.0
20260503053527 14 199 8.0 9.7 0.00 0.00 0.00 58 1013.9
20260503052527 14 206 6.4 11.3 0.00 0.00 0.00 58 1013.9
20260503051529 14 153 6.4 11.3 0.00 0.00 0.00 58 1013.9
20260503050527 13 170 6.4 9.7 0.00 0.00 0.00 58 1014.0
20260503045526 13 157 9.7 9.7 0.00 0.00 0.00 58 1014.0
20260503042527 13 191 4.8 9.7 0.00 0.00 0.00 58 1014.0
20260503041529 13 169 6.4 9.7 0.00 0.00 0.00 57 1014.0
20260503040528 13 168 4.8 9.7 0.00 0.00 0.00 57 1014.2
20260503035527 13 156 6.4 8.0 0.00 0.00 0.00 56 1014.2
20260503034527 13 134 6.4 9.7 0.00 0.00 0.00 56 1014.2
20260503033527 14 139 8.0 8.0 0.00 0.00 0.00 56 1014.2
20260503032525 14 132 8.0 9.7 0.00 0.00 0.00 55 1014.2
20260503031529 14 150 8.0 9.7 0.00 0.00 0.00 55 1014.2
20260503030527 14 142 6.4 8.0 0.00 0.00 0.00 54 1014.3
20260503025527 14 147 6.4 8.0 0.00 0.00 0.00 54 1014.3
20260503024528 15 139 6.4 8.0 0.00 0.00 0.00 54 1014.3
20260503022527 15 131 3.2 8.0 0.00 0.00 0.00 53 1014.3
20260503020530 15 138 6.4 9.7 0.00 0.00 0.00 52 1014.6
20260503015527 15 130 6.4 8.0 0.00 0.00 0.00 52 1014.6
20260503014528 15 160 3.2 9.7 0.00 0.00 0.00 52 1014.6
20260503013527 15 153 3.2 9.7 0.00 0.00 0.00 52 1014.6
20260503011529 15 162 4.8 9.7 0.00 0.00 0.00 52 1014.6
20260503010527 15 160 4.8 11.3 0.00 0.00 0.00 53 1015.0
20260503005526 15 169 4.8 12.9 0.00 0.00 0.00 53 1015.0
20260503003525 15 169 1.6 12.9 0.00 0.00 0.00 53 1015.0
20260503002526 15 158 3.2 11.3 0.00 0.00 0.00 53 1015.0
20260503001529 15 162 8.0 12.9 0.00 0.00 0.00 54 1015.0
20260503000528 15 150 9.7 12.9 0.00 0.00 0.00 54 1015.5
20260502235526 15 160 9.7 11.3 0.00 0.00 0.00 54 1015.5
20260502234531 15 151 3.2 11.3 0.00 0.00 0.00 55 1015.5